Location: Condor
(52.3263°N, 114.5541°W)
Time: 22:16:36
(UTC+00:00)

Oscar 19 - Pass Details

Date: 12 December 2023
Orbit: 771 x 789 km, 98.9° (Epoch: 04 March)

Event Time Altitude Azimuth Distance (km) Brightness Sun altitude
Rises 01:08:15 0° 225° (SW) 3,239 15.1 -14.6°
Reaches altitude 10° 01:12:32 10° 260° (W) 2,322 14.5 -15.3°
Maximum altitude 01:13:59 11° 277° (W) 2,247 14.1 -15.5°
Drops below altitude 10° 01:15:27 10° 293° (WNW) 2,329 13.8 -15.7°
Sets 01:19:47 0° 328° (NNW) 3,269 14.1 -16.3°
